Theta_e
317 318 317 319 318 318 316 318 318 319 316 315 316 315 315 314 314 315 314 315 311 312 310 311 310 310 310 312 311 311 312 314 314 314 313 312 312 315 318 323 326 330 332 332 332 333 334 333 333 332 333 332 333 333 333 331 330 329 327 326 326 324 323 323 323 323 323 322 322 322 322 321 321 321 321 323 322 321 321 320 320 321 320 319 318
319 318 317 318 319 318 317 318 318 319 316 316 315 314 315 312 311 310 311 312 311 313 310 312 313 312 310 312 312 313 313 312 314 315 315 314 314 313 315 319 323 329 331 332 332 333 334 334 333 333 333 333 333 332 333 333 331 330 329 329 328 327 326 326 325 325 324 323 323 322 322 323 322 321 321 322 321 322 322 321 321 322 320 319 319
319 318 318 318 318 318 317 318 318 318 317 318 314 316 315 314 315 313 312 311 313 311 310 313 312 312 311 310 313 312 312 313 312 313 314 314 314 313 314 316 320 325 328 331 333 333 333 334 334 334 334 334 334 334 333 333 332 331 331 331 330 330 329 328 327 326 325 324 323 323 323 323 322 322 322 322 322 322 322 322 321 322 321 320 319
319 319 319 318 317 316 316 316 318 316 316 317 314 315 315 313 311 311 310 310 311 309 308 309 311 312 309 311 312 312 312 312 312 313 314 313 313 314 313 314 316 319 323 327 331 332 332 333 333 334 334 333 335 335 334 334 333 332 332 332 331 330 330 329 329 328 326 327 325 324 323 323 323 322 322 323 322 322 322 321 321 321 321 320 319
316 319 318 317 316 316 316 316 317 316 315 315 313 312 311 310 309 309 310 310 309 312 309 307 307 311 310 311 310 311 312 312 313 313 313 314 314 313 313 313 313 314 316 319 325 330 332 333 333 332 333 334 334 335 335 334 335 334 333 334 333 331 330 329 328 328 328 328 327 326 325 325 324 324 323 323 322 323 323 322 321 321 321 321 320
317 315 315 315 314 314 315 316 316 314 313 313 313 311 311 310 309 310 313 313 314 314 312 312 311 308 309 311 309 311 311 311 312 313 313 313 314 313 314 314 314 314 314 316 318 322 327 330 332 332 332 333 334 334 335 335 335 335 333 333 332 332 332 331 331 330 329 328 328 328 327 326 325 325 324 324 323 323 323 323 322 322 322 321 320
317 316 315 315 315 314 314 317 316 314 314 312 314 311 310 312 310 313 314 313 313 313 312 312 310 311 311 311 311 311 310 311 311 311 312 313 313 313 313 313 314 314 314 314 313 316 321 326 329 330 331 332 333 334 335 335 335 334 333 333 333 333 333 333 332 332 331 330 329 329 328 327 327 326 325 325 324 324 323 323 323 323 322 322 322
318 318 317 315 316 316 315 315 314 315 313 313 313 313 313 314 313 314 314 314 313 312 312 311 310 310 310 309 310 310 310 310 310 310 312 311 311 312 313 313 313 313 312 314 314 314 317 318 323 326 329 331 332 332 334 334 335 335 334 333 333 333 332 332 332 331 332 333 330 328 329 328 327 327 327 326 325 325 324 324 323 323 323 323 323
323 323 322 320 319 317 319 318 317 318 317 316 316 317 317 317 316 314 313 312 311 311 311 310 310 310 309 308 309 309 309 309 310 310 311 310 311 311 312 312 312 310 313 313 314 314 314 316 319 322 324 325 328 331 332 333 334 334 334 334 334 334 333 331 332 332 332 331 332 330 329 329 327 327 327 327 326 326 325 324 324 323 324 323 323
324 321 322 324 324 323 324 324 322 320 320 319 318 318 317 317 316 314 312 310 311 311 310 311 310 309 310 310 310 308 309 309 309 307 308 309 310 310 311 312 312 312 312 313 313 314 314 314 315 316 315 317 322 326 329 331 332 333 334 333 334 334 334 332 331 331 330 331 330 330 330 329 329 328 328 327 327 327 326 325 325 325 324 324 324
327 325 325 323 322 323 323 322 321 321 320 319 319 318 316 316 315 316 311 311 312 312 311 310 310 310 310 311 310 309 310 309 307 307 308 309 310 310 310 310 311 311 311 312 312 312 313 313 314 314 315 315 320 324 326 328 329 331 333 333 334 334 334 333 332 331 330 330 331 330 330 328 329 329 327 327 327 327 326 326 326 325 325 325 324
327 327 326 324 322 319 318 317 319 320 319 317 315 315 316 316 315 313 313 311 309 311 312 311 311 310 309 310 310 309 309 308 308 308 308 308 309 309 309 310 309 309 310 311 311 311 311 312 311 313 314 314 315 318 321 323 324 326 329 331 332 333 333 332 331 331 331 331 331 331 331 331 330 329 329 329 328 327 327 327 326 326 325 325 324
323 323 324 322 323 321 319 320 320 317 317 318 318 317 317 315 314 313 312 314 314 312 312 312 310 311 311 309 310 310 309 308 309 309 309 309 309 308 309 308 308 308 309 309 308 308 309 310 311 311 312 313 313 313 315 317 317 323 326 328 330 332 332 332 332 331 330 330 330 330 330 330 330 329 329 331 329 329 329 327 328 327 326 326 325
321 323 323 324 323 321 322 323 322 320 318 317 316 314 314 314 315 317 316 316 315 314 314 312 309 307 309 311 311 312 312 311 310 310 309 308 308 307 308 307 307 308 308 307 306 306 307 308 308 309 310 311 312 312 313 314 314 319 324 325 327 329 331 331 332 331 330 330 329 330 329 329 329 330 330 332 330 329 330 330 329 328 327 329 327
325 325 325 325 324 322 323 324 322 320 319 318 316 314 316 317 317 317 317 313 313 315 315 313 312 308 309 308 307 308 310 306 304 304 307 307 307 307 307 306 307 307 307 306 306 306 306 306 306 307 308 308 309 310 311 310 311 311 318 321 324 327 329 331 331 331 330 329 329 329 329 329 329 329 329 330 331 330 329 329 329 328 328 330 330
326 326 326 327 326 325 323 321 322 321 321 321 320 318 316 318 317 316 315 315 312 312 310 310 311 310 308 306 307 307 305 301 301 309 305 308 307 307 306 307 306 306 305 305 306 305 305 306 306 306 307 307 308 309 309 310 310 309 309 310 313 321 324 327 329 329 329 329 330 329 328 327 328 328 329 329 328 329 330 327 328 329 330 328 329
327 327 325 327 327 327 326 325 323 322 320 320 321 321 320 319 318 316 316 316 315 311 310 311 311 313 312 308 306 303 304 308 310 311 312 307 305 305 305 304 304 305 304 305 305 305 305 305 306 306 306 307 307 308 308 309 309 309 309 307 309 315 320 324 327 328 328 328 329 330 327 327 327 326 328 329 329 329 329 328 327 325 327 327 329
326 327 327 325 326 326 325 324 324 323 321 321 320 319 318 317 318 317 316 316 315 314 313 311 311 311 312 313 311 308 308 309 307 304 308 312 313 312 310 310 307 305 303 303 304 305 304 305 305 305 306 306 307 307 307 308 308 309 309 310 312 315 318 321 322 325 326 327 327 328 328 327 326 326 326 327 327 327 327 327 327 327 327 327 327
321 322 322 323 325 325 324 324 321 320 318 320 320 320 320 319 317 317 317 315 314 312 312 313 310 310 311 311 309 309 310 306 304 306 303 307 310 310 309 308 309 308 306 305 306 306 306 304 305 305 306 306 306 307 307 308 308 308 310 311 315 314 315 315 318 321 324 325 325 326 327 327 326 325 325 325 325 325 325 326 325 326 326 326 326
319 319 321 321 321 321 321 321 321 321 318 318 318 319 319 320 318 318 317 315 314 314 313 313 312 311 308 308 308 308 308 307 307 305 302 299 304 308 308 309 309 309 310 309 309 307 306 306 306 306 306 306 306 306 307 307 307 307 308 313 314 314 314 315 315 315 318 322 324 325 325 325 325 326 326 324 324 324 324 324 324 324 324 324 325
319 318 319 319 317 318 319 318 318 318 315 317 318 318 317 316 315 315 315 315 315 315 314 313 313 312 311 309 308 308 307 307 307 305 302 302 303 305 307 308 309 309 309 308 309 309 308 308 308 306 306 306 306 306 306 306 306 306 307 311 314 316 317 318 318 317 316 315 317 321 322 324 325 324 324 324 323 322 323 323 323 323 323 323 324
313 312 312 312 312 312 312 313 314 314 313 315 315 315 314 314 313 313 313 313 314 314 312 313 313 313 312 312 310 308 307 306 303 304 305 304 301 303 306 305 304 306 307 308 306 307 308 309 309 308 307 307 307 306 305 305 305 305 306 308 311 314 316 317 316 315 314 314 314 314 316 318 321 323 324 324 323 322 321 322 322 322 322 322 322
308 308 307 307 306 305 305 305 306 307 308 308 307 307 308 309 308 308 308 309 311 312 311 311 311 311 311 311 310 309 307 305 307 307 305 302 302 303 304 305 304 303 305 305 307 308 307 308 308 308 308 309 308 307 306 306 304 305 305 306 308 311 313 313 314 314 313 313 313 314 315 315 316 319 321 322 322 322 322 321 321 320 320 320 320
304 303 303 302 303 303 302 303 303 304 304 304 306 307 310 309 308 307 307 308 309 307 307 307 308 308 308 309 309 310 309 307 307 307 305 304 303 301 301 303 303 303 304 304 303 306 305 305 307 307 308 307 307 307 306 306 305 303 303 305 307 310 311 312 315 315 313 313 313 313 314 315 315 316 317 319 320 321 321 321 320 320 319 319 319
300 301 300 300 301 302 302 302 302 301 300 302 302 303 304 304 306 306 306 306 306 302 301 300 303 304 305 305 305 306 305 307 307 306 306 305 302 299 300 301 297 298 299 299 298 298 303 304 305 305 305 305 306 305 305 305 305 304 303 303 305 307 309 310 314 314 313 312 313 312 311 312 315 315 315 316 316 317 319 320 320 320 320 318 318
298 298 297 297 299 297 297 299 297 297 298 299 299 299 300 301 301 301 301 302 302 301 299 297 298 298 298 300 301 303 303 304 304 303 302 299 297 296 296 296 297 295 297 295 295 296 294 298 301 303 302 303 304 304 304 304 304 302 301 301 303 305 306 308 310 310 311 311 311 311 311 311 311 312 313 314 315 316 316 317 318 319 319 319 319
298 295 295 296 295 297 296 297 297 297 298 298 298 297 297 298 298 297 298 298 296 297 296 296 298 296 295 297 298 299 299 299 299 299 301 301 299 298 296 293 293 294 293 294 294 293 295 296 300 300 301 301 302 301 301 301 301 301 299 302 302 302 303 305 307 310 311 311 311 310 310 310 311 312 313 313 315 314 314 315 315 315 317 317 317
295 295 294 294 294 294 295 295 294 295 295 296 296 295 294 295 295 295 295 295 295 294 293 294 294 294 293 294 293 294 295 295 295 296 297 298 299 300 299 295 292 289 291 289 288 287 292 293 294 298 300 299 296 297 299 300 300 300 298 300 301 301 302 304 307 308 308 308 308 308 309 310 311 311 311 310 311 311 312 313 312 313 312 313 314
294 291 293 292 292 292 292 292 293 293 293 293 293 293 293 292 292 291 292 291 291 290 291 292 291 290 291 292 292 293 292 293 292 292 294 293 295 298 299 296 295 291 288 287 286 287 288 293 291 293 295 294 297 298 297 298 299 298 298 298 299 299 300 302 304 304 305 305 305 306 306 306 307 308 308 308 308 309 310 309 309 310 310 310 310
292 292 291 290 290 289 290 290 289 291 290 291 291 291 290 289 288 288 287 287 287 286 287 286 289 289 288 288 288 289 290 289 291 291 290 293 293 294 296 297 297 292 291 288 287 290 289 291 292 292 293 294 293 297 296 295 296 296 296 297 297 297 299 300 302 302 302 303 303 303 303 304 305 306 307 307 307 308 309 309 309 309 310 310 311
290 290 289 287 286 286 287 286 287 287 288 288 287 287 286 287 285 285 286 285 284 285 285 286 287 286 285 286 286 286 288 288 290 290 288 289 291 292 294 296 297 296 293 291 287 290 291 289 291 292 293 293 294 293 294 294 295 296 295 295 296 296 296 297 298 300 300 301 302 302 303 304 304 304 304 304 304 306 307 308 308 308 308 309 310
287 286 286 286 286 286 285 285 285 284 285 284 284 284 284 284 284 284 284 284 285 284 285 284 286 285 285 286 286 286 287 285 287 287 288 288 289 290 292 294 296 296 295 292 289 288 291 290 291 291 292 292 293 292 292 293 294 294 294 294 294 294 295 295 296 298 299 300 301 301 301 302 303 302 302 303 304 306 306 307 307 307 307 307 308
285 286 286 285 285 285 284 284 284 284 285 284 283 283 283 284 283 284 284 284 285 284 283 285 284 283 284 285 286 287 286 285 287 287 287 288 287 288 289 291 293 293 293 291 288 288 290 292 291 291 291 292 291 292 290 291 291 292 293 293 294 293 294 294 295 295 297 299 300 300 300 301 300 300 301 302 303 303 304 305 305 305 306 306 306
285 285 286 284 283 283 284 284 284 284 284 284 283 283 284 284 284 284 283 284 284 284 283 284 284 283 283 284 285 285 285 285 286 285 286 286 285 285 286 287 289 290 291 290 289 288 287 289 289 290 290 290 289 291 290 290 290 291 291 292 293 293 293 293 294 294 296 297 299 298 299 299 299 300 301 301 302 302 303 305 303 304 304 304 303
283 284 283 283 282 282 284 283 284 284 284 284 282 283 283 284 284 284 283 284 284 284 284 284 284 283 284 283 284 284 284 284 284 284 284 284 284 284 285 285 286 287 288 290 289 286 286 287 289 288 289 289 289 289 290 291 291 291 290 290 291 292 292 292 292 293 295 297 298 299 299 299 300 300 300 301 302 301 302 302 301 302 302 302 302
284 282 282 282 282 283 284 284 284 284 284 283 283 282 283 283 284 284 284 283 283 283 283 284 284 283 283 283 284 284 284 283 284 284 284 283 283 284 284 284 285 286 286 287 289 289 288 287 288 288 289 288 289 290 291 291 291 290 290 291 291 290 290 291 291 291 293 296 297 298 298 299 299 299 300 300 301 301 300 300 300 300 300 299 300
282 283 283 283 284 284 284 283 283 283 283 283 283 283 283 282 282 283 284 284 283 284 283 283 284 283 283 283 284 284 283 283 283 283 283 283 284 283 284 285 284 285 285 286 287 288 287 286 287 289 289 289 290 290 290 289 289 289 290 289 289 290 290 290 290 291 293 295 295 296 296 297 298 298 299 299 299 299 299 299 299 299 298 298 297
283 283 283 283 282 282 282 282 282 281 281 281 282 283 283 283 282 281 282 282 283 283 283 284 283 283 283 283 283 283 283 282 283 283 283 283 283 283 283 284 284 284 284 285 286 287 287 287 287 287 288 288 287 288 289 287 287 287 288 289 289 289 289 288 289 290 290 290 289 291 293 294 295 296 297 297 297 297 297 297 297 297 296 295 296
283 283 282 282 281 282 282 282 282 282 282 282 281 281 282 282 282 283 282 282 283 282 283 283 283 283 283 283 283 283 283 283 283 283 283 283 283 283 283 284 284 284 284 285 285 286 287 286 287 287 287 288 288 286 288 289 289 288 287 286 286 288 288 288 288 289 289 289 290 293 292 292 293 293 294 295 296 296 296 296 296 295 294 294 295
283 281 281 282 281 280 280 280 281 280 280 280 280 280 280 281 281 281 281 282 282 282 282 282 282 282 283 283 283 283 283 283 283 283 283 283 283 283 284 283 284 284 284 284 285 286 286 286 286 286 286 287 287 288 288 288 286 287 288 287 285 286 287 288 288 288 288 289 288 288 290 291 291 292 293 293 293 293 293 293 293 292 291 292 296
282 280 281 281 281 281 281 281 281 280 281 282 281 281 282 283 281 282 282 282 282 282 282 282 282 282 282 282 282 282 282 284 285 285 286 286 284 283 284 284 283 283 283 284 285 285 285 285 285 286 286 286 286 286 286 286 285 285 287 287 286 286 287 287 288 289 289 288 288 288 288 287 287 287 287 286 287 289 289 290 290 290 292 295 297
280 279 279 279 280 280 280 280 279 281 281 281 283 288 289 285 283 283 283 282 282 281 281 281 281 281 281 281 281 283 284 284 284 285 287 287 287 286 285 284 284 283 284 284 284 285 285 284 284 285 284 284 285 286 285 286 287 287 286 286 285 286 286 286 287 288 289 288 288 287 288 288 287 287 287 286 287 287 286 288 288 291 293 297 297
279 278 279 280 280 279 279 279 280 281 281 282 286 288 289 289 286 282 282 282 281 281 280 280 280 280 281 281 280 281 282 283 282 285 286 287 287 287 287 287 287 285 284 283 284 284 284 283 284 284 284 284 285 286 286 286 286 286 286 285 285 285 284 283 282 286 289 287 286 286 287 288 286 286 287 287 287 286 286 287 291 293 294 296 296
278 278 279 279 279 279 279 279 279 280 280 284 287 287 288 288 288 285 282 282 281 280 280 280 280 280 280 280 280 281 280 281 282 282 283 284 285 286 286 287 287 287 287 285 284 283 284 283 283 283 284 283 284 285 285 285 285 285 285 285 285 284 283 283 284 283 286 287 287 286 286 288 285 286 286 287 287 286 287 289 293 294 295 295 294
278 279 278 278 278 278 279 279 279 279 279 283 285 287 287 287 288 287 282 281 280 279 279 279 279 279 279 280 280 281 281 282 281 281 281 282 284 285 285 286 286 286 287 288 288 286 285 284 283 283 284 284 283 284 286 285 286 283 284 284 284 284 284 284 284 285 286 288 286 285 284 286 285 285 285 286 285 285 286 290 293 294 294 294 293
277 277 277 277 277 278 278 278 278 278 278 282 285 286 286 287 287 286 280 280 279 279 279 279 279 279 279 279 279 279 280 279 280 280 281 282 283 283 284 284 284 285 286 287 287 287 286 285 284 283 284 285 284 285 286 286 284 283 283 283 284 283 283 283 285 285 287 288 285 285 284 286 284 283 283 284 283 284 286 290 293 293 293 293 292
277 276 276 275 276 275 276 276 277 277 278 283 284 285 286 286 287 285 280 280 279 278 279 278 278 278 279 279 279 279 280 280 281 282 282 283 284 283 283 283 283 283 284 284 285 285 284 284 284 284 285 286 286 285 285 286 285 285 284 284 284 284 284 285 285 286 286 288 286 285 281 285 281 281 280 281 283 285 285 289 293 293 292 292 291
274 274 274 274 274 274 275 274 276 276 277 282 283 284 285 285 285 281 279 279 278 278 278 278 278 278 278 279 279 279 280 280 282 284 284 283 282 281 281 282 282 283 283 285 287 287 286 285 285 285 285 286 287 286 286 286 286 286 286 286 285 284 283 281 281 284 284 287 286 285 283 283 280 280 279 280 283 284 285 286 291 292 291 291 290
273 273 273 274 274 274 274 274 274 275 275 279 282 283 284 285 283 278 278 277 277 277 277 278 278 278 278 279 279 279 279 279 282 284 285 284 282 281 281 281 282 282 283 284 286 287 287 287 287 288 288 288 288 289 289 289 288 287 285 283 282 283 281 279 280 281 282 285 285 285 284 283 279 279 277 277 278 279 282 285 287 290 291 290 289
272 272 273 273 273 273 273 274 274 274 274 277 281 282 283 283 283 278 277 277 276 276 277 278 278 278 279 280 280 279 279 279 282 284 285 284 282 282 281 281 281 281 282 284 284 284 286 287 287 287 287 287 288 288 288 289 289 287 284 280 282 283 281 280 279 281 282 284 285 285 283 278 278 278 276 276 277 276 276 284 285 287 288 289 289
271 272 272 272 272 272 272 273 276 275 272 275 280 281 282 282 281 277 276 275 275 276 276 277 278 278 278 279 280 280 280 281 284 284 285 284 282 282 282 281 280 280 281 282 282 282 282 282 283 284 284 285 285 285 286 287 288 287 285 284 283 282 281 281 281 281 280 282 284 285 281 276 277 278 278 275 272 275 275 279 283 284 285 285 285
Wind_Speed
5 6 4 5 4 4 4 5 4 5 3 5 4 4 4 5 5 5 4 4 3 4 3 4 3 3 3 4 4 4 4 5 5 5 4 4 4 6 8 9 9 11 13 14 16 17 17 17 17 17 16 17 18 18 19 17 16 15 17 17 16 14 13 15 16 17 17 17 17 17 17 17 17 18 17 18 18 17 17 18 19 18 17 16 17
6 5 5 5 5 4 5 5 5 5 4 5 5 4 5 4 4 3 3 4 3 5 3 4 4 4 4 4 5 5 5 5 5 5 5 5 5 6 8 9 9 10 12 14 16 17 18 18 18 18 19 19 18 19 19 19 19 17 17 19 19 17 16 16 17 18 18 19 19 19 19 19 17 18 19 20 19 20 20 19 19 21 19 18 22
5 5 5 5 5 5 5 5 5 5 5 6 3 5 4 5 4 4 4 4 6 3 2 5 5 5 4 4 6 4 5 5 5 5 5 6 6 5 6 9 10 9 11 13 15 18 18 18 19 20 20 20 21 20 20 21 20 19 20 21 21 20 20 18 18 19 19 21 20 21 20 20 19 20 20 20 22 23 22 19 21 22 22 21 19
5 4 5 4 5 5 5 4 6 5 5 5 5 4 4 4 3 2 3 2 3 3 1 2 5 6 4 5 5 5 6 6 5 6 6 6 6 6 6 6 9 11 11 12 15 16 18 19 20 20 21 21 22 22 22 22 20 19 21 22 23 24 25 22 20 19 21 22 22 22 22 22 22 21 21 22 23 23 24 19 22 23 23 22 20
5 5 5 4 3 4 3 4 5 4 4 4 4 3 1 2 2 0 1 1 2 4 2 2 4 6 5 5 4 6 6 5 6 6 7 6 7 6 6 6 6 9 11 12 13 16 17 19 20 20 21 21 22 23 23 23 24 23 21 23 23 24 24 23 21 21 22 24 23 24 25 24 23 23 22 23 24 23 23 24 24 25 24 24 23
3 2 3 3 3 3 3 3 3 2 2 2 3 3 3 2 3 2 3 2 4 5 4 6 6 5 6 6 5 6 6 6 6 6 6 6 7 6 7 6 7 7 7 11 13 14 15 17 19 20 22 22 23 23 24 24 23 24 24 23 22 23 24 23 23 24 25 24 25 25 25 24 23 24 24 24 24 24 25 24 24 25 26 25 26
2 2 1 1 1 1 2 5 3 2 2 3 4 2 2 4 3 3 4 4 4 4 4 5 6 7 7 5 6 6 6 6 6 6 7 7 7 7 7 7 7 7 7 7 9 14 14 15 18 18 21 22 23 24 25 25 25 25 25 26 26 25 24 24 24 24 25 25 26 26 26 25 27 27 25 25 25 26 26 27 26 26 27 27 27
3 3 1 1 0 1 3 3 3 1 2 2 2 4 4 4 2 2 4 5 4 5 3 6 6 7 6 6 6 6 6 6 7 7 7 6 7 8 7 7 7 7 7 7 7 9 14 15 14 17 18 21 23 24 26 28 27 27 26 26 27 27 25 25 25 24 25 25 23 26 26 25 28 27 26 27 27 26 27 27 29 29 28 29 29
3 3 2 1 0 1 3 2 2 2 2 2 3 4 4 4 4 4 3 5 4 5 7 6 6 6 6 5 7 6 6 7 7 7 6 6 8 8 7 8 8 8 7 7 8 8 10 14 15 16 17 17 19 22 24 27 29 30 29 28 28 28 28 27 26 26 25 24 23 23 26 28 29 30 27 25 26 28 28 28 27 28 29 30 32
4 3 1 2 2 2 3 3 3 2 3 2 4 1 2 2 4 3 3 3 5 6 7 7 5 5 6 7 8 6 7 7 7 6 6 8 8 8 9 7 7 7 7 7 8 7 7 10 14 16 17 17 17 19 22 24 27 29 30 30 29 30 30 28 28 26 25 25 22 23 24 26 27 29 30 28 28 29 30 29 28 30 30 31 32
5 5 4 5 4 4 4 4 2 2 1 2 2 1 2 2 5 6 3 5 5 5 6 5 6 6 6 9 8 8 7 7 7 7 8 8 9 8 5 8 7 7 8 8 7 7 8 8 8 8 10 15 16 18 20 22 23 26 28 30 30 30 30 29 28 28 28 27 28 27 26 26 26 27 28 29 30 30 32 30 31 30 30 31 32
5 7 7 7 6 5 3 3 3 2 2 2 4 4 5 5 6 5 6 4 3 6 5 5 6 6 9 9 8 8 8 8 7 8 8 8 8 7 8 8 6 7 8 8 6 6 7 8 7 8 8 12 16 16 18 19 20 22 25 27 29 30 29 29 29 29 27 27 27 27 27 25 24 27 29 29 30 31 31 33 33 33 33 33 32
6 3 4 4 4 3 4 4 3 2 3 5 6 5 5 4 3 1 3 5 5 3 4 3 4 7 6 7 8 6 8 8 9 8 8 8 6 6 7 6 7 7 8 6 6 6 7 8 8 8 9 8 10 14 16 17 18 20 24 25 26 27 28 28 29 28 29 27 28 28 28 29 28 26 30 28 29 29 30 34 33 33 35 34 35
4 3 3 3 4 4 4 4 4 5 5 4 3 4 4 4 3 4 4 5 5 2 3 2 2 4 7 7 7 7 8 8 8 8 7 6 6 6 7 6 8 8 7 6 6 6 7 7 7 8 8 8 8 8 9 10 12 17 21 23 24 26 27 28 28 28 27 29 27 28 28 29 30 29 28 29 27 30 30 33 32 32 34 35 35
4 4 4 4 4 4 5 6 5 4 4 4 5 5 5 5 5 4 5 3 4 4 5 5 5 4 4 5 5 7 4 3 3 5 6 7 6 6 6 6 8 7 6 6 7 7 6 7 8 8 8 8 8 8 8 10 12 16 18 21 23 25 26 27 28 28 28 27 28 29 30 30 29 29 31 31 29 27 29 31 31 31 35 35 33
4 5 5 5 5 5 6 4 5 4 7 7 5 6 4 4 5 6 4 4 3 4 2 5 5 3 5 1 5 4 10 2 5 6 4 6 4 6 5 7 7 7 6 7 8 7 7 7 9 9 9 9 9 8 9 9 14 16 17 18 20 22 25 26 27 27 27 30 31 32 30 31 32 32 31 30 31 32 25 28 30 32 31 33 35
5 5 6 7 7 8 4 3 3 4 2 3 5 5 4 5 5 4 5 5 5 2 2 2 4 3 3 3 4 1 3 9 9 9 3 3 4 4 7 6 7 7 6 7 7 7 7 7 9 8 9 9 9 9 9 9 10 10 13 16 18 19 22 25 26 27 27 29 31 31 31 29 29 32 31 31 32 31 29 28 26 23 27 31 33
2 4 4 3 3 3 2 2 1 2 2 2 3 2 3 3 4 3 4 4 3 5 4 2 3 3 4 4 3 7 10 6 6 6 1 6 10 8 7 7 6 7 6 7 8 8 6 8 9 9 8 8 9 8 8 9 9 9 9 12 16 17 21 23 25 26 28 30 31 31 31 31 30 30 32 31 31 31 30 30 29 29 27 26 24
1 2 2 2 2 3 4 4 2 1 2 3 3 2 3 2 2 1 3 2 2 3 4 4 2 3 5 4 4 5 6 6 5 8 14 1 5 6 6 7 9 8 6 6 8 8 7 7 9 8 8 8 9 8 8 9 12 13 16 18 19 20 20 21 23 25 27 28 31 32 32 32 31 32 32 31 31 32 31 30 31 31 30 30 32
5 4 4 4 4 4 4 4 4 4 3 4 3 2 2 5 6 4 4 3 2 3 4 3 3 3 0 3 3 4 4 4 6 7 10 14 9 5 6 8 7 7 8 8 7 8 8 7 8 8 7 8 8 8 8 9 8 9 9 15 18 20 20 21 21 22 24 26 27 29 31 32 32 32 32 32 32 32 31 32 30 30 31 30 31
3 4 4 3 4 3 3 4 2 2 2 2 3 5 5 3 5 6 6 6 5 3 3 5 4 3 5 3 3 3 4 6 6 2 5 10 16 10 11 4 5 6 7 5 7 8 8 9 8 8 8 8 8 8 8 8 8 8 10 14 18 21 22 22 21 20 21 21 22 25 27 28 29 31 32 33 33 33 32 31 31 30 29 30 30
5 5 5 5 5 5 5 5 4 3 4 4 3 3 3 4 3 3 3 3 3 5 3 2 3 4 4 5 6 5 4 3 1 5 5 7 11 14 12 14 17 7 6 9 5 6 7 8 10 9 8 8 8 7 7 8 8 8 10 16 17 18 21 22 21 21 21 21 21 22 23 25 27 28 29 31 31 32 32 30 30 30 29 29 30
5 6 6 5 6 5 5 4 5 5 6 5 4 3 3 4 3 4 4 4 4 4 5 5 4 4 5 4 5 6 6 7 9 7 7 8 11 14 13 13 13 18 8 3 7 7 6 8 8 8 8 9 8 7 7 8 9 10 16 16 17 15 17 19 20 20 21 21 21 22 23 23 24 26 27 28 29 30 30 31 30 31 31 32 33
5 5 6 5 5 5 4 4 5 4 4 3 4 3 4 3 3 3 3 4 3 4 3 3 5 4 4 4 5 5 5 6 7 8 8 9 11 13 12 13 12 6 9 11 5 8 6 6 7 8 8 7 8 7 8 8 9 15 14 14 16 16 17 18 21 21 22 23 23 22 22 22 22 23 24 25 26 27 29 31 31 32 33 34 34
4 5 4 5 5 6 6 6 5 5 3 4 4 4 5 4 5 4 4 4 3 3 4 3 3 3 3 4 3 4 5 5 5 6 6 8 9 12 11 8 13 16 9 5 5 3 7 9 7 7 7 7 7 8 7 8 8 11 15 12 16 17 20 19 20 22 25 25 24 24 23 25 23 22 21 22 24 27 28 30 32 32 32 34 35
4 5 3 4 5 4 4 5 4 4 4 4 4 4 4 5 4 5 5 4 4 4 4 4 4 4 4 4 4 5 4 5 5 5 6 7 7 8 12 11 9 12 12 5 2 8 2 3 6 7 6 7 7 8 7 7 7 11 14 12 13 16 18 20 25 24 24 25 26 25 24 23 25 28 27 27 30 26 25 29 31 30 33 33 34
5 3 3 4 4 5 5 5 4 4 4 4 4 4 4 5 5 4 5 4 4 4 4 4 5 4 4 3 3 3 3 3 3 3 3 4 6 7 9 13 13 9 9 10 8 5 8 3 7 4 6 7 8 5 5 5 7 13 14 11 11 16 17 19 23 24 24 24 25 25 25 25 25 25 26 29 30 29 32 31 29 31 32 33 32
4 4 4 4 4 5 5 5 4 4 4 4 4 4 4 5 5 5 5 3 5 5 4 4 4 4 4 4 3 4 4 4 3 4 4 3 4 4 6 7 10 16 16 16 9 4 4 4 3 6 7 5 2 4 8 10 9 14 13 9 11 12 15 18 23 25 28 26 26 26 25 26 26 28 25 24 26 26 25 27 29 32 30 30 31
4 3 5 4 5 4 5 4 4 4 4 5 4 4 4 4 4 4 5 4 4 4 3 4 3 3 4 3 3 4 4 4 4 3 4 4 4 4 4 6 6 10 10 12 21 11 4 1 4 3 2 3 8 6 5 6 8 11 11 11 11 10 15 21 24 27 28 30 29 29 29 27 28 26 26 25 26 26 27 28 28 27 30 31 30
5 4 5 5 4 4 4 4 4 4 4 4 5 4 4 5 4 4 3 3 4 3 4 3 4 4 3 3 3 4 4 4 5 4 4 4 4 4 4 4 4 8 6 10 17 14 10 10 3 5 8 8 4 8 7 6 12 15 9 10 10 11 17 21 23 26 28 32 31 31 30 31 31 29 26 25 24 28 31 31 31 32 30 32 33
6 5 5 5 4 4 5 5 5 5 5 5 4 5 4 5 4 4 4 4 4 4 3 3 4 3 4 5 4 4 4 5 6 5 5 4 4 5 5 5 5 7 10 10 14 15 6 11 13 6 8 13 10 6 9 8 8 12 9 9 10 15 19 16 20 21 27 29 30 29 30 31 30 31 31 31 31 34 32 31 31 30 30 31 33
4 4 5 5 5 5 5 5 5 4 4 4 4 4 4 4 4 4 4 4 4 4 5 3 2 4 5 6 6 5 6 5 6 5 5 5 4 4 5 6 6 6 8 11 14 20 17 13 14 16 9 10 13 10 8 8 7 13 11 10 11 15 12 12 17 20 22 27 28 29 29 30 30 32 33 34 34 33 32 31 30 30 29 32 30
4 5 6 5 5 5 4 4 4 4 4 4 4 4 4 4 4 4 4 4 4 4 4 6 4 4 4 5 6 6 5 5 6 6 5 6 5 5 5 6 7 6 7 10 12 17 19 14 10 13 14 11 14 10 10 12 11 9 11 10 11 12 11 11 12 16 19 20 24 26 28 30 30 31 32 31 31 32 29 29 29 30 29 28 26
4 5 5 4 4 4 4 4 4 4 4 4 4 4 5 5 5 3 3 4 4 4 4 5 5 4 4 5 7 6 5 6 7 7 6 6 5 5 6 6 8 7 6 8 11 13 19 19 17 12 12 5 14 13 11 12 14 13 13 12 10 11 11 10 11 12 18 20 21 26 28 29 29 28 28 28 29 26 27 29 27 26 27 27 27
4 5 4 4 4 4 4 4 4 4 4 4 4 4 4 3 4 4 3 3 4 4 5 5 5 4 5 5 7 6 5 6 7 7 5 6 5 6 7 6 8 9 7 8 10 13 16 18 17 15 13 10 11 15 12 11 12 13 17 14 11 10 11 11 11 11 17 21 22 24 26 28 28 29 28 30 25 29 29 26 27 27 27 28 28
5 3 3 3 4 4 5 5 5 4 4 4 4 4 3 4 4 4 4 4 4 4 4 5 6 5 6 7 8 7 6 7 8 7 6 5 6 6 7 7 7 10 9 8 10 11 12 15 16 14 11 10 15 11 9 10 12 12 11 14 13 13 13 12 11 12 14 21 21 22 23 23 25 27 29 28 27 28 29 28 28 29 28 28 26
4 4 4 4 5 5 5 4 4 4 4 4 4 4 4 3 3 4 4 4 4 5 5 5 6 5 6 6 8 7 6 7 9 7 8 8 7 7 8 9 8 9 8 9 10 10 13 16 17 15 15 14 14 15 10 11 13 11 11 14 14 15 15 13 11 11 16 22 19 21 23 24 24 26 28 27 27 28 25 26 27 28 28 28 27
4 5 5 5 4 4 4 3 3 3 4 4 4 4 4 4 3 3 4 4 5 5 6 6 5 5 6 7 7 7 7 7 10 9 8 9 8 8 9 9 10 8 10 10 9 11 12 14 14 17 13 16 16 12 11 8 10 14 14 14 14 13 12 12 10 10 9 9 7 9 13 18 22 25 25 25 24 25 24 24 25 25 25 24 26
5 5 4 4 3 3 3 3 4 4 4 4 4 4 4 4 4 4 4 4 4 4 5 6 6 6 6 7 7 7 8 8 9 10 10 10 9 10 9 9 11 9 10 10 10 11 11 13 14 15 15 14 12 19 13 10 13 11 14 13 15 13 13 14 15 10 9 10 11 17 16 16 19 18 21 24 23 26 26 26 26 27 25 26 28
5 4 4 3 3 2 3 3 3 3 3 3 3 3 4 4 4 4 4 4 5 6 5 6 6 6 7 7 7 7 8 8 8 9 8 10 10 12 9 7 9 11 12 11 10 9 11 11 11 13 7 12 12 11 11 12 13 11 8 11 15 16 15 15 15 16 12 10 10 9 11 14 15 18 19 16 20 20 20 19 20 21 23 26 25
4 3 3 3 3 4 4 4 4 3 3 4 3 3 4 5 4 4 4 5 6 7 7 7 7 7 7 6 6 7 8 12 14 14 13 12 10 12 13 9 9 10 11 11 10 10 10 10 14 10 13 12 13 11 12 11 12 12 12 11 15 14 14 15 16 14 13 12 11 10 9 8 9 9 9 9 12 13 13 15 15 22 25 20 12
3 3 3 3 3 4 4 4 4 3 3 3 5 10 8 5 5 5 5 5 6 6 7 8 7 6 7 6 6 10 13 14 14 15 14 15 16 13 12 11 12 11 12 13 12 10 10 13 12 13 15 13 13 11 11 11 10 12 13 13 14 14 14 15 14 12 9 10 12 11 8 5 7 9 7 9 12 9 7 8 9 13 12 15 14
3 3 3 4 4 4 4 4 4 4 4 4 10 11 11 12 6 5 5 6 5 5 6 6 8 9 8 6 5 7 8 10 10 13 18 15 16 18 19 19 16 13 13 14 14 12 12 13 12 13 13 15 15 12 13 14 13 13 13 13 15 15 15 16 18 13 7 6 6 11 12 7 5 9 9 10 11 8 6 9 15 16 13 13 15
3 3 6 4 4 4 4 4 4 5 5 7 12 12 12 13 10 6 4 5 5 5 5 6 7 7 9 9 7 4 5 7 9 10 12 17 19 18 19 19 19 19 19 15 14 13 12 14 15 14 14 15 15 13 12 11 12 12 12 15 15 16 16 15 14 15 8 6 13 13 13 8 5 8 10 11 9 7 8 12 16 15 12 17 19
3 6 4 5 4 4 4 5 4 5 4 8 12 13 13 13 13 9 5 4 6 6 6 6 7 7 8 9 10 7 3 9 9 9 11 12 17 20 20 19 18 19 18 20 20 16 14 15 14 17 14 14 17 13 14 14 14 18 19 17 16 16 17 19 16 15 14 9 10 13 14 12 4 9 10 10 6 6 7 11 17 15 17 21 24
5 5 4 5 4 4 4 4 4 4 5 8 12 13 13 13 13 10 4 5 5 5 6 7 6 7 7 9 10 11 8 6 5 7 10 13 14 14 13 12 11 13 16 17 17 19 16 13 13 17 15 15 16 17 14 13 17 17 17 18 17 18 19 20 20 19 17 12 13 14 13 14 4 5 8 8 3 4 5 10 18 17 22 25 25
4 4 3 3 3 3 4 4 4 4 5 10 12 12 13 13 14 9 5 5 5 5 5 5 6 6 7 8 8 10 10 9 8 12 12 13 15 15 16 17 17 14 13 11 10 11 13 13 15 17 17 16 16 16 16 14 15 17 16 20 20 18 18 19 19 17 15 10 10 9 12 13 2 4 4 4 4 4 4 10 18 22 25 25 26
3 3 3 2 2 3 3 4 4 4 5 10 11 12 13 13 13 6 5 6 6 7 6 4 5 5 6 7 9 10 11 11 12 22 20 17 15 16 17 16 16 14 13 12 19 19 17 17 16 16 16 18 23 21 19 19 17 16 17 14 14 15 16 16 17 15 14 9 6 8 8 10 1 2 2 3 4 3 3 2 18 25 26 27 27
3 3 2 1 2 2 3 3 4 4 4 8 11 13 13 15 10 5 6 6 7 8 8 6 6 5 5 6 8 11 12 12 18 25 24 24 14 15 15 16 15 16 14 14 18 22 24 28 30 33 34 33 31 30 31 33 23 19 16 16 16 15 17 17 16 15 14 10 3 7 7 11 2 2 2 4 4 5 5 4 9 21 26 27 27
3 2 2 2 2 2 2 4 4 4 4 7 11 13 14 15 11 7 6 7 8 7 9 8 6 6 7 11 11 10 12 13 22 26 26 20 14 14 15 16 18 17 15 13 13 15 22 25 25 25 25 26 27 29 29 28 27 22 14 17 17 16 16 16 17 15 14 12 8 7 6 3 3 2 3 2 5 5 8 2 9 15 23 23 27
1 1 2 2 2 3 2 3 6 4 4 6 10 13 14 15 11 5 6 7 8 9 9 11 11 8 7 8 13 15 16 19 27 25 27 22 15 14 14 16 16 16 15 14 16 17 16 17 17 18 17 19 17 15 16 24 23 20 16 15 13 14 15 17 17 17 16 11 2 8 6 2 6 3 3 3 5 3 6 5 7 7 8 10 14
Wind_Direction
183 201 186 203 214 200 204 219 220 232 198 227 217 221 228 233 238 244 261 270 262 271 293 298 293 291 270 283 283 288 291 287 288 288 286 276 271 271 267 261 255 254 256 258 265 273 277 281 284 282 271 264 266 269 270 267 257 243 246 243 243 239 242 255 260 255 251 247 243 246 246 251 248 251 248 235 231 238 238 241 249 244 230 236 223
196 193 184 210 217 209 204 223 214 227 204 220 219 210 217 227 237 253 258 259 265 263 276 284 291 281 279 273 281 274 277 278 279 277 276 280 267 265 270 265 261 256 255 256 262 267 271 275 278 278 280 281 279 270 267 268 267 258 241 241 239 242 241 246 252 253 250 250 248 245 248 247 249 246 247 250 249 228 228 242 244 243 235 233 251
202 193 200 206 210 207 215 215 226 224 211 229 210 209 213 218 223 229 233 243 252 271 291 287 288 290 277 274 268 279 276 272 273 273 275 271 273 269 266 265 262 259 258 260 262 265 268 271 274 276 277 277 276 278 278 277 275 266 250 247 243 242 241 247 242 251 251 249 249 247 249 252 247 242 247 244 244 253 256 238 232 236 249 245 244
196 210 207 213 208 207 213 202 223 221 211 224 219 219 213 228 243 254 265 274 291 312 331 285 286 282 302 281 279 280 270 271 272 270 269 269 268 268 264 264 263 259 259 260 261 262 265 268 269 272 275 276 278 280 283 282 275 268 265 260 254 251 262 261 248 247 247 247 245 245 246 246 249 249 245 243 244 243 253 255 244 240 242 249 241
188 195 208 222 228 218 214 214 223 215 209 221 223 225 239 277 283 6 325 343 324 293 314 282 280 285 293 275 279 277 269 274 270 270 266 265 265 263 265 262 261 264 261 258 259 261 264 265 265 267 268 268 271 273 273 274 280 280 271 267 267 266 265 262 255 251 248 243 244 241 239 243 247 250 248 245 246 246 246 246 245 245 244 243 241
165 162 175 202 230 235 239 254 256 244 229 218 228 220 230 246 257 323 295 313 279 278 309 303 289 286 280 276 285 273 281 280 268 266 270 268 265 266 261 263 261 258 257 258 256 258 259 260 263 266 266 268 268 269 271 273 273 274 279 278 273 271 269 266 261 253 250 249 247 248 251 249 241 242 246 248 245 246 246 245 244 244 245 245 242
166 137 110 102 157 228 240 242 256 272 257 233 219 230 223 236 241 256 279 286 275 286 291 283 284 286 282 293 282 279 279 268 273 273 269 267 269 263 261 259 261 259 257 257 259 257 254 256 261 262 265 267 269 270 272 275 275 275 273 273 278 279 276 270 263 258 254 245 246 247 253 250 244 247 247 245 246 245 245 243 243 243 242 242 243
136 130 114 120 136 260 261 286 281 261 236 251 202 222 225 239 255 243 278 274 287 287 274 269 268 273 277 283 276 274 277 278 273 270 265 271 265 263 260 257 257 256 256 258 260 258 254 258 258 260 262 265 267 269 272 274 277 278 278 277 277 278 278 275 272 266 261 258 255 256 250 249 252 251 247 244 243 244 243 242 242 241 241 241 243
143 130 120 123 130 281 275 258 241 213 233 225 223 228 209 219 241 225 221 268 288 275 278 265 270 267 276 278 273 273 273 270 270 267 282 268 264 261 260 257 256 258 258 258 260 258 263 260 261 262 263 264 265 268 270 273 274 276 279 280 279 279 278 277 276 275 274 265 256 249 249 253 250 247 247 250 248 242 243 244 242 243 244 245 244
163 151 153 200 214 226 253 261 245 221 224 208 237 277 302 264 263 258 212 216 253 260 267 278 281 286 284 274 272 269 264 267 265 271 263 265 261 257 254 261 264 262 261 259 258 261 266 266 264 265 265 265 265 267 268 270 272 274 276 278 279 280 281 281 280 279 278 276 270 266 262 258 257 254 251 243 242 243 244 244 242 240 241 243 244
198 194 215 239 250 245 236 249 257 253 212 207 234 243 265 253 233 257 234 220 237 257 264 278 286 285 281 274 275 272 271 265 266 265 257 252 259 262 272 264 260 261 262 263 263 268 268 268 271 271 268 265 263 264 267 268 270 272 274 275 276 279 282 282 283 282 280 280 279 276 274 270 264 260 258 251 250 247 247 242 242 242 242 240 242
210 210 206 209 218 229 226 237 226 199 235 255 247 225 229 237 242 238 267 286 248 255 263 273 275 273 272 275 266 267 269 264 264 258 261 264 260 261 260 264 265 268 267 262 268 264 265 268 269 268 271 273 271 269 267 267 267 269 271 274 276 278 278 280 283 285 284 284 282 280 276 272 265 266 263 256 255 256 248 244 244 244 243 242 241
217 211 216 218 227 235 241 272 269 239 224 235 239 240 236 240 281 241 250 275 282 247 253 223 281 291 272 267 283 264 257 264 261 261 258 259 260 267 271 281 274 273 268 273 272 268 264 269 268 269 271 272 275 273 272 271 271 270 271 272 273 275 277 280 281 282 285 285 286 286 285 282 277 270 266 258 258 256 254 251 246 245 244 243 243
210 209 217 210 229 245 248 251 259 245 232 244 260 256 266 255 235 274 209 243 268 239 238 106 278 250 302 310 289 270 255 252 254 256 264 272 269 265 271 271 275 271 276 280 275 267 265 265 268 269 269 271 273 275 276 275 273 271 272 272 272 274 276 277 278 281 281 284 285 285 286 285 285 282 277 265 260 260 255 252 245 246 249 244 246
209 211 214 219 223 226 227 225 240 237 254 258 248 255 243 249 234 234 279 230 239 257 242 176 254 254 261 296 294 327 320 281 293 286 268 264 264 267 267 269 269 268 273 282 272 268 266 264 267 269 270 270 269 268 268 268 267 266 268 270 272 274 275 276 278 280 283 284 285 285 286 286 284 284 283 283 278 271 267 262 256 253 249 247 243
213 211 212 219 218 226 235 212 219 212 223 236 249 254 247 248 236 233 222 283 238 271 218 203 217 284 315 219 300 339 316 291 314 292 215 255 270 268 267 265 267 274 277 266 263 263 263 260 262 260 262 261 260 261 263 263 266 269 269 269 270 271 273 273 276 278 280 282 283 285 287 287 288 287 288 289 286 283 279 273 272 263 251 250 252
212 206 210 218 215 225 235 240 211 242 245 244 246 254 250 247 251 242 211 233 272 270 311 201 236 223 243 321 315 299 247 301 326 300 309 11 285 268 268 260 259 260 259 260 264 261 262 266 261 259 258 260 261 261 262 264 268 266 267 266 266 265 267 272 275 279 281 283 284 284 285 287 287 289 290 291 292 291 290 291 286 279 266 263 262
225 217 244 278 292 298 267 242 257 313 250 251 285 309 275 290 288 259 265 255 267 306 302 275 225 232 226 223 217 270 302 318 344 310 315 283 283 276 286 283 269 263 245 261 269 266 255 261 259 263 264 262 262 265 262 265 264 266 264 267 263 265 270 271 273 277 281 283 284 285 287 289 290 290 290 290 291 294 295 295 297 298 296 289 280
88 107 67 55 58 52 48 43 40 46 57 64 24 352 348 334 326 319 276 294 261 261 276 297 345 257 228 252 283 282 293 313 302 310 307 249 216 282 275 273 281 279 268 254 264 273 267 256 266 266 267 263 263 262 264 262 263 263 266 269 270 274 275 274 274 276 278 279 282 284 286 287 291 293 293 293 293 293 293 293 295 295 295 294 293
84 77 85 72 61 50 52 50 45 38 42 54 49 13 27 34 25 5 345 336 308 290 302 312 287 305 173 257 282 295 286 281 257 270 292 305 301 251 238 262 268 261 272 280 277 272 273 266 266 269 263 263 261 261 260 265 265 268 269 267 267 271 270 271 271 271 273 276 278 282 284 286 289 291 293 293 293 293 294 296 295 294 293 292 292
84 77 63 67 58 57 45 37 48 54 52 69 59 51 52 43 28 25 22 21 23 340 349 341 335 320 338 341 311 276 283 260 286 288 288 305 299 308 313 285 231 256 273 251 266 274 277 277 270 269 272 273 269 267 266 267 270 266 270 270 273 277 280 278 276 273 273 272 273 275 279 283 285 289 291 292 293 293 294 294 294 293 291 291 291
50 48 48 44 59 51 53 46 37 37 45 48 53 56 57 56 52 49 34 35 17 23 19 340 358 354 343 332 331 308 297 327 344 307 276 250 284 313 320 324 318 298 296 292 252 251 264 273 283 281 276 271 275 272 271 267 265 269 268 271 275 277 280 283 283 283 281 280 279 278 277 279 280 283 287 289 290 291 292 291 291 293 295 297 294
53 48 46 43 53 51 53 52 46 41 39 33 26 43 52 47 40 41 34 35 23 20 19 24 15 5 2 345 335 343 336 329 326 333 327 320 317 310 313 311 307 309 308 269 297 287 263 266 270 273 275 279 277 283 275 268 269 267 269 274 279 278 281 284 284 282 281 278 275 275 274 274 276 280 282 285 288 289 291 291 290 291 295 298 294
49 49 34 32 50 48 47 53 49 45 46 40 37 19 60 41 52 63 47 42 30 32 29 26 17 8 358 1 347 347 344 334 336 333 330 318 312 303 308 316 304 269 303 313 290 274 287 279 271 270 271 275 280 269 277 280 276 276 279 278 280 282 282 281 283 283 285 285 285 283 277 273 271 270 273 277 281 282 285 288 289 288 292 296 295
35 56 27 32 43 47 43 46 43 37 44 47 36 36 45 50 44 47 45 39 36 44 38 18 29 17 351 348 360 351 341 339 337 341 333 328 321 311 305 316 305 307 305 309 307 272 265 267 267 271 274 275 275 278 274 277 275 275 281 287 285 286 289 288 287 287 289 287 284 280 281 284 279 275 273 273 274 276 277 281 284 287 293 296 296
77 58 23 45 48 54 59 51 46 43 45 47 45 40 46 59 52 52 45 28 36 39 39 22 29 23 14 14 6 351 345 356 352 343 340 335 324 322 316 311 300 294 306 304 301 320 301 263 278 266 266 275 271 272 278 288 305 308 307 303 302 299 297 297 299 297 296 294 292 289 287 285 284 284 285 283 280 275 273 278 282 287 292 294 293
88 78 53 63 62 56 51 52 41 42 38 42 38 41 43 58 52 55 49 28 40 42 31 29 26 16 14 14 354 327 320 312 327 311 309 306 311 313 323 323 318 306 294 294 301 239 260 251 244 277 271 258 276 306 324 321 303 300 304 307 300 297 296 295 298 298 294 292 290 289 287 285 282 280 283 288 288 283 281 280 282 288 291 291 292
87 84 58 72 66 65 57 52 49 48 47 47 42 43 41 52 47 47 45 14 42 38 15 24 13 360 350 336 350 308 300 299 293 286 272 274 291 304 319 313 316 314 320 311 303 268 235 277 273 240 263 288 295 318 322 318 310 311 316 314 307 306 306 306 307 307 305 305 304 303 301 298 296 296 296 296 292 287 281 284 290 290 287 286 287
94 86 82 65 67 70 70 57 51 48 50 42 44 45 47 54 50 46 37 7 40 25 13 17 340 338 333 325 299 293 293 296 296 281 281 288 281 285 287 296 303 302 311 311 307 319 292 250 295 285 180 348 325 312 296 289 306 311 308 303 300 300 304 304 303 303 302 302 302 301 300 300 299 296 295 292 286 283 282 286 288 283 284 285 284
96 87 84 79 73 70 77 65 57 55 52 43 43 39 46 46 38 48 36 31 40 10 6 5 332 332 316 314 298 298 289 303 289 288 289 280 281 274 270 266 267 275 277 295 295 300 306 303 212 277 306 293 277 300 303 294 294 297 291 290 293 293 294 295 297 299 298 299 298 299 297 295 295 293 291 290 289 290 291 290 289 288 289 290 288
92 93 89 85 81 70 72 65 55 52 46 44 38 41 47 52 29 31 14 34 35 19 356 358 324 344 327 317 312 303 299 298 294 296 287 283 273 272 269 268 261 257 275 279 292 287 301 299 299 282 291 301 301 291 295 294 288 293 294 293 293 293 294 293 291 290 296 296 297 297 297 296 295 296 296 294 293 293 292 292 292 295 294 291 289
104 107 99 91 82 77 65 69 62 54 55 43 48 51 50 54 42 33 7 31 31 11 334 332 332 338 335 324 312 306 303 302 292 286 285 278 271 269 265 262 259 256 263 276 271 282 293 292 294 298 297 295 301 301 295 294 292 295 298 293 292 292 292 290 288 287 288 293 294 295 293 293 294 293 292 290 290 290 290 291 292 291 291 290 289
117 93 85 84 82 87 83 73 74 62 57 45 35 54 56 36 18 18 14 22 15 341 348 329 338 341 325 309 298 293 293 292 284 287 286 281 281 271 264 264 262 251 253 263 274 282 290 286 281 286 301 310 299 299 304 304 304 295 289 295 297 292 289 289 289 287 286 286 290 293 295 295 294 293 291 289 286 286 287 288 287 287 286 285 284
89 89 87 87 93 93 85 79 72 65 54 48 30 39 36 20 358 1 359 356 352 330 340 323 319 320 311 302 295 291 288 283 287 286 280 286 278 273 264 252 258 257 236 252 265 278 286 298 297 290 286 281 288 294 303 306 304 306 299 294 288 285 287 287 289 289 287 288 288 290 292 293 294 293 289 286 285 283 286 286 286 285 284 282 284
69 85 97 94 97 97 81 65 52 44 36 31 22 32 23 14 352 331 335 334 319 319 324 311 309 313 314 303 295 297 302 300 289 283 284 277 270 263 265 254 257 258 246 235 257 267 278 285 289 296 292 295 280 294 298 293 293 297 298 297 295 292 286 283 281 282 285 286 285 285 286 288 287 287 283 284 284 288 287 285 287 286 285 285 284
82 75 81 89 74 59 52 37 35 27 22 11 2 11 0 352 341 325 321 318 299 293 290 297 304 310 303 306 297 302 306 300 293 294 287 274 274 275 273 266 259 265 257 248 243 257 271 284 287 290 294 304 294 290 290 287 286 288 286 294 294 288 287 283 277 278 278 284 284 285 283 281 282 285 287 286 285 286 287 287 287 285 284 283 282
75 73 52 46 50 46 43 34 16 10 4 1 356 347 343 342 320 307 307 306 300 297 292 288 291 289 289 279 286 295 296 294 295 295 295 296 289 281 276 277 269 266 266 256 253 250 260 263 278 282 288 285 284 291 294 299 300 289 291 291 290 290 289 283 278 273 276 281 278 277 279 282 284 285 284 284 286 288 287 287 286 285 283 283 282
70 59 56 41 49 34 33 19 16 4 358 357 343 323 316 318 316 303 291 290 291 292 294 290 285 281 276 281 284 288 292 289 291 293 294 289 289 282 277 277 273 269 269 266 259 258 257 264 271 285 282 288 296 285 296 290 289 297 298 295 294 287 284 286 278 280 278 277 274 261 266 275 278 279 282 285 287 289 288 285 284 284 284 283 281
75 57 40 41 24 30 9 13 11 2 349 340 327 319 317 318 312 308 304 298 289 284 279 280 281 278 276 278 285 286 285 284 285 289 293 292 287 281 277 278 280 279 274 273 271 266 263 268 270 266 279 280 280 293 299 294 287 285 295 298 296 302 301 297 293 283 280 274 262 267 265 263 268 274 280 284 284 285 282 282 283 284 284 283 283
72 66 51 30 354 30 15 15 354 357 343 330 322 314 307 301 305 301 298 299 299 296 293 291 289 286 284 284 283 283 279 279 279 284 285 290 292 291 284 274 280 286 285 284 278 270 270 269 266 278 260 277 284 270 283 293 293 286 271 289 297 302 298 297 293 297 288 280 283 273 268 269 269 274 283 289 284 279 281 284 281 279 278 281 278
66 64 62 52 31 12 5 9 355 351 339 317 309 318 322 322 314 309 305 304 301 302 302 300 297 294 291 282 280 279 277 276 277 279 281 281 290 295 295 295 288 283 285 285 280 279 270 268 275 266 278 279 277 285 293 294 295 297 303 294 286 285 291 292 290 286 288 288 280 276 274 254 267 273 269 278 281 279 279 274 276 275 277 263 240
66 52 44 46 53 36 5 351 351 346 335 326 328 331 333 324 317 313 310 303 302 300 302 303 300 293 289 290 285 280 284 287 288 287 283 282 284 279 286 297 299 296 292 292 287 280 279 282 279 288 289 286 291 294 292 288 292 290 283 285 291 300 295 288 284 283 289 287 286 282 275 261 258 268 271 273 276 279 268 274 269 270 243 216 182
60 47 55 42 27 17 7 350 344 347 342 335 335 336 329 326 319 306 301 300 297 298 298 297 302 306 303 294 288 293 292 292 293 295 306 291 291 292 289 287 285 288 294 292 290 292 292 285 286 287 284 287 290 292 290 294 291 291 295 297 298 296 293 296 297 295 263 257 264 288 287 270 228 264 270 267 273 281 268 265 270 246 207 181 149
35 55 49 36 24 10 359 354 353 344 338 329 332 327 326 327 326 315 304 303 303 302 297 298 300 303 306 308 306 299 293 295 303 304 301 304 304 298 296 293 288 282 283 285 293 294 289 291 293 289 292 291 295 292 292 295 295 299 297 295 289 285 285 282 280 283 286 283 287 288 287 281 188 253 266 268 270 269 267 265 250 212 184 157 152
63 53 39 36 18 3 360 349 348 341 331 321 322 325 329 330 332 333 319 310 309 303 304 301 302 306 308 311 313 313 305 304 306 301 304 303 304 301 296 288 286 286 281 280 281 274 283 282 285 288 288 294 287 289 290 292 306 297 294 290 290 290 289 287 284 287 290 296 289 285 287 288 188 253 264 269 266 263 260 248 223 188 174 157 140
56 51 41 33 18 3 349 338 336 326 320 308 323 330 333 337 338 343 314 313 305 299 302 303 304 308 307 311 313 314 318 315 299 300 304 305 306 306 305 301 299 294 294 292 290 284 278 279 280 283 282 282 285 285 287 294 291 290 290 289 291 291 291 291 291 288 286 285 277 284 282 283 186 247 253 269 283 265 249 228 203 188 154 141 134
58 49 36 28 1 354 335 328 328 320 308 317 329 335 340 341 343 344 319 315 310 306 303 301 302 304 307 305 306 305 312 319 319 319 315 314 318 319 318 316 312 309 301 297 288 289 290 283 280 279 282 279 278 281 281 282 280 277 280 284 286 287 289 289 284 280 278 262 258 257 270 284 96 244 266 320 306 269 245 232 195 161 145 136 130
58 63 32 48 16 344 322 323 325 322 313 322 332 340 346 347 349 337 328 326 324 319 316 310 306 305 303 308 311 314 315 317 321 327 327 325 318 313 309 305 302 299 294 289 289 287 283 283 281 280 279 279 278 280 285 286 283 287 286 283 285 287 291 292 289 292 286 279 226 240 258 271 151 203 317 337 304 301 259 265 168 148 138 131 128
55 46 49 19 331 332 326 324 322 314 313 316 336 348 353 351 351 340 333 329 324 322 319 319 317 316 318 319 323 321 319 318 322 324 323 325 313 305 300 299 298 299 299 302 297 295 294 291 290 291 291 289 291 290 289 289 286 288 290 290 290 294 296 293 290 289 284 288 220 221 248 268 148 147 27 360 355 2 348 115 134 137 131 128 126
44 34 38 17 339 339 328 312 312 310 311 318 342 353 356 354 354 344 333 331 322 322 321 321 324 325 326 332 327 317 316 314 319 321 322 323 313 307 303 303 304 303 304 305 303 301 295 294 293 289 286 284 283 284 284 283 285 287 287 288 288 291 288 288 290 289 289 282 257 192 237 243 122 118 92 334 31 11 347 61 116 126 125 125 124
93 44 29 36 348 339 318 296 301 302 302 320 338 356 356 355 354 343 337 333 327 329 330 327 326 325 322 324 323 325 320 317 319 320 321 322 313 309 308 305 303 302 302 305 304 302 303 304 302 301 296 290 288 283 281 281 280 281 277 276 284 283 283 286 289 292 291 285 221 169 218 182 147 211 167 102 35 322 3 4 87 95 106 112 115